Location: Strawberry
(45.6646°N, 111.9596°W)
Time: 16:30:46
(UTC+00:00)

Vanguard 2 Rocket - All Passes

Search period start: 26 September 2022 00:00
Search period end: 06 October 2022 00:00
Orbit: 553 x 3323 km, 32.9° (Epoch: 25 September)

Date Brightness Start Highest point End Pass type
(mag) Time Alt. Az. Time Alt. Az. Time Alt. Az.
26 Sep - 06:28:19 10° S 06:32:32 13° SSE 06:36:03 10° SE night (unlit)
26 Sep - 08:39:45 10° SW 08:45:46 22° S 08:50:03 10° SE night (unlit)
26 Sep - 10:54:03 10° SW 10:58:06 19° S 11:01:18 10° SE visible
27 Sep - 05:29:55 10° SSE 05:32:06 11° SSE 05:34:06 10° SE night (unlit)
27 Sep - 07:38:44 10° SSW 07:45:45 21° S 07:50:41 10° ESE night (unlit)
27 Sep - 09:52:58 10° SW 09:58:29 23° S 10:02:26 10° SE visible
27 Sep - 12:08:35 10° SW 12:10:19 12° SSW 12:11:56 10° S visible
28 Sep - 06:37:47 10° SSW 06:45:30 20° SSE 06:51:00 10° ESE night (unlit)
28 Sep - 08:51:41 10° SW 08:58:42 26° S 09:03:25 10° SE night (unlit)
28 Sep - 11:06:59 10° WSW 11:10:52 18° SSW 11:13:58 10° SSE visible
29 Sep - 05:37:09 10° SSW 05:45:00 18° SSE 05:50:52 10° ESE visible
29 Sep - 07:50:12 10° SW 07:58:41 28° S 08:04:13 10° ESE night (unlit)
29 Sep - 10:05:34 10° WSW 10:11:19 24° SSW 10:15:22 10° SE visible
30 Sep - 04:37:14 10° S 04:44:17 15° SSE 04:49:57 10° ESE visible
30 Sep - 06:48:39 10° SW 06:58:25 27° S 07:04:49 10° ESE night (unlit)
30 Sep - 09:03:59 10° WSW 09:11:34 29° S 09:16:30 10° SE night (unlit)
30 Sep - 11:20:16 10° WSW 11:23:31 15° SSW 11:26:11 10° S visible
01 Oct - 03:39:13 10° SSE 03:43:24 11° SSE 03:47:09 10° SE visible
01 Oct - 05:47:14 10° SSW 05:57:53 25° SSE 06:05:06 10° ESE visible
01 Oct - 08:02:09 10° WSW 08:11:34 32° S 08:17:27 10° ESE night (unlit)
01 Oct - 10:18:23 10° WSW 10:24:02 22° SSW 10:28:03 10° SSE visible
02 Oct - 04:46:10 10° SSW 04:57:06 23° SSE 05:04:56 10° ESE visible
02 Oct - 07:00:11 10° SW 07:11:17 33° S 07:18:11 10° ESE night (unlit)
02 Oct - 09:16:31 10° WSW 09:24:21 29° SSW 09:29:25 10° SE night (unlit)
02 Oct - 11:34:35 10° SW 11:36:00 11° SW 11:37:17 10° SSW visible
03 Oct - 03:45:50 10° S 03:56:05 19° SSE 04:04:03 10° ESE visible
03 Oct - 05:58:15 10° SW 06:10:43 33° SSE 06:18:40 10° ESE visible
03 Oct - 08:14:25 10° WSW 08:24:23 35° S 08:30:30 10° ESE night (unlit)
03 Oct - 10:31:30 10° WSW 10:36:35 19° SSW 10:40:23 10° SSE visible
04 Oct - 02:46:49 10° S 02:54:58 15° SE 03:01:55 10° ESE visible
04 Oct - 04:56:32 10° SSW 05:09:51 30° SSE 05:18:48 10° ESE visible
04 Oct - 07:12:09 10° WSW 07:24:07 38° S 07:31:21 10° ESE visible
04 Oct - 09:29:15 10° WSW 09:37:00 27° SSW 09:42:06 10° SE night (unlit)
05 Oct - 03:55:17 10° SSW 04:08:45 27° SSE 04:18:28 10° ESE visible
05 Oct - 06:09:50 10° SW 06:23:30 39° S 06:31:55 10° ESE visible
05 Oct - 08:26:55 10° WSW 08:37:07 35° SSW 08:43:22 10° SE night (unlit)
05 Oct - 10:45:07 10° WSW 10:48:59 14° SW 10:52:06 10° S visible
